This is the latest recevied weather packets stored in our database for station/object KE2A-13. If no packets are shown the sender has not sent any weather packets the latest 10 day(s).
| Time | Temp. | Humidity | Pressure | Rain* | Wind** | Luminosity | Snow |
|---|---|---|---|---|---|---|---|
| 1777803300 | 6.11° C | 63% | 1010.9 hPa | - | - | - | - |
| 1777802400 | 6.67° C | 62% | 1010.7 hPa | - | - | - | - |
| 1777801500 | 6.67° C | 61% | 1010.5 hPa | - | - | - | - |
| 1777800600 | 6.67° C | 60% | 1010.4 hPa | - | - | - | - |
| 1777799700 | 6.67° C | 61% | 1010.4 hPa | - | - | - | - |
| 1777798800 | 6.11° C | 62% | 1010.3 hPa | - | - | - | - |
| 1777797900 | 6.11° C | 64% | 1010.5 hPa | - | - | - | - |
| 1777797000 | 6.11° C | 63% | 1010.6 hPa | - | - | - | - |
| 1777796100 | 6.67° C | 63% | 1010.6 hPa | - | - | - | - |
| 1777795200 | 6.67° C | 62% | 1010.7 hPa | - | - | - | - |
| 1777794300 | 6.67° C | 61% | 1010.7 hPa | - | - | - | - |
| 1777793400 | 6.67° C | 61% | 1010.6 hPa | - | - | - | - |
| 1777792500 | 6.67° C | 61% | 1010.7 hPa | - | - | - | - |
| 1777791600 | 6.67° C | 60% | 1010.7 hPa | - | - | - | - |
| 1777790700 | 7.22° C | 59% | 1010.6 hPa | - | - | - | - |
| 1777789800 | 7.78° C | 57% | 1010.6 hPa | - | - | - | - |
| 1777788900 | 7.78° C | 56% | 1010.7 hPa | - | - | - | - |
| 1777788000 | 8.33° C | 54% | 1010.8 hPa | - | - | - | - |
| 1777787100 | 8.33° C | 54% | 1011 hPa | - | - | - | - |
| 1777786200 | 8.33° C | 54% | 1011 hPa | - | - | - | - |
| 1777785300 | 8.33° C | 54% | 1011.1 hPa | - | - | - | - |
| 1777784400 | 8.89° C | 54% | 1011.2 hPa | - | - | - | - |
| 1777783500 | 8.89° C | 54% | 1011.3 hPa | - | - | - | - |
| 1777782600 | 8.89° C | 53% | 1011.5 hPa | - | - | - | - |
| 1777781700 | 9.44° C | 52% | 1011.5 hPa | - | - | - | - |
* Rain since midnight (hover to see other rain measurements)
** Current wind speed in m/s (hover to see current wind gust speed)